CW9203 Weather Reports


Display with metric or nautical units.
time (UTC)temp
F
wind
direction
speed
MPH
gust
MPH
rain 1hr
in
rain 24hr
in
rain mn
in
humidity
%
barometer
mb
20260906220304 58 290 2.0 5.0 0.00 0.06 0.05 4 1003.6
20260906215306 58 286 3.0 6.0 0.00 0.06 0.05 4 1003.7
20260906214804 58 291 3.0 10.0 0.00 0.06 0.05 4 1003.9
20260906214304 58 281 3.0 6.0 0.00 0.06 0.05 4 1003.9
20260906212306 57 282 3.0 8.0 0.00 0.06 0.05 4 1004.0
20260906205306 57 291 3.0 7.0 0.01 0.06 0.05 4 1004.5
20260906204803 57 286 3.0 5.0 0.01 0.06 0.05 4 1004.3
20260906204303 57 291 2.0 6.0 0.01 0.06 0.05 4 1004.2
20260906201803 57 283 3.0 3.0 0.01 0.06 0.05 4 1004.1
20260906200804 57 280 1.0 2.0 0.01 0.06 0.05 4 1003.9
20260906200304 57 290 1.0 2.0 0.00 0.05 0.04 4 1003.7
20260906194804 57 359 0.0 2.0 0.00 0.05 0.04 4 1003.6
20260906194304 57 5 0.0 0.0 0.00 0.05 0.04 4 1003.3
20260906193804 57 5 0.0 2.0 0.00 0.05 0.04 4 1003.4
20260906192804 57 285 1.0 3.0 0.00 0.05 0.04 4 1003.7
20260906191804 57 280 3.0 5.0 0.00 0.05 0.04 4 1003.9
20260906191304 57 269 2.0 5.0 0.00 0.05 0.04 4 1003.9
20260906190303 57 275 4.0 6.0 0.00 0.05 0.04 4 1003.8
20260906185803 57 262 3.0 7.0 0.00 0.05 0.04 4 1003.8
20260906182804 58 259 2.0 5.0 0.00 0.05 0.04 4 1003.7
20260906181304 58 252 4.0 7.0 0.00 0.05 0.04 4 1004.0
20260906180804 59 267 3.0 7.0 0.00 0.05 0.04 4 1004.1
20260906173304 59 265 3.0 7.0 0.01 0.05 0.04 4 1003.7
20260906172306 59 303 1.0 3.0 0.01 0.05 0.04 4 1003.7
20260906171804 59 76 2.0 5.0 0.01 0.05 0.04 4 1003.7
20260906170304 59 287 2.0 3.0 0.02 0.04 0.03 4 1003.6
20260906165804 59 310 1.0 2.0 0.02 0.04 0.03 4 1003.6
20260906163305 59 307 1.0 3.0 0.02 0.04 0.03 4 1004.0
20260906162804 59 317 1.0 3.0 0.03 0.04 0.03 4 1004.0
20260906162306 59 302 1.0 6.0 0.03 0.04 0.03 4 1004.1
20260906160805 60 306 1.0 5.0 0.03 0.04 0.03 4 1004.4
20260906155306 60 4 0.0 2.0 0.03 0.04 0.03 4 1004.4
20260906153807 61 336 0.0 3.0 0.01 0.02 0.01 4 1004.7
20260906153306 61 334 1.0 12.0 0.01 0.02 0.01 4 1004.8
20260906152806 61 327 2.0 7.0 0.00 0.01 0.00 4 1004.9
20260906152307 61 0 2.0 3.0 0.00 0.01 0.00 4 1005.0
20260906150807 61 339 2.0 3.0 0.00 0.01 0.00 4 1005.2
20260906145805 61 339 2.0 7.0 0.00 0.01 0.00 4 1005.3
20260906144806 61 350 2.0 6.0 0.00 0.01 0.00 4 1005.6
20260906143806 61 350 1.0 3.0 0.00 0.01 0.00 4 1005.9
20260906143306 61 316 1.0 3.0 0.00 0.01 0.00 4 1006.1
20260906142307 61 326 1.0 5.0 0.00 0.01 0.00 4 1006.4
20260906141805 61 346 1.0 3.0 0.00 0.01 0.00 4 1006.5
20260906140805 61 341 1.0 3.0 0.00 0.01 0.00 4 1006.7
20260906140304 61 321 0.0 1.0 0.00 0.01 0.00 4 1006.8
20260906135806 61 331 1.0 2.0 0.00 0.01 0.00 4 1007.0
20260906135307 61 339 1.0 3.0 0.00 0.01 0.00 4 1007.1
20260906132306 61 306 1.0 2.0 0.00 0.01 0.00 4 1007.6
20260906131805 61 321 1.0 3.0 0.00 0.01 0.00 4 1007.7
20260906131306 61 310 1.0 2.0 0.00 0.01 0.00 4 1007.8
20260906130805 60 317 1.0 2.0 0.00 0.01 0.00 4 1008.0
20260906125805 60 290 0.0 3.0 0.00 0.01 0.00 4 1008.2
20260906125306 60 315 0.0 2.0 0.00 0.01 0.00 4 1008.2
20260906123305 61 309 0.0 3.0 0.00 0.01 0.00 4 1008.5
20260906122805 61 308 1.0 2.0 0.00 0.01 0.00 4 1008.6
20260906115805 61 273 0.0 2.0 0.00 0.01 0.01 4 1008.9
20260906113305 62 314 1.0 3.0 0.00 0.01 0.01 4 1009.1
20260906110304 63 307 1.0 2.0 0.00 0.01 0.01 4 1009.5
20260906105806 63 304 1.0 3.0 0.00 0.01 0.01 4 1009.5
20260906104805 63 319 1.0 3.0 0.00 0.01 0.01 4 1009.7
20260906104306 63 320 1.0 5.0 0.00 0.01 0.01 4 1009.7
20260906103805 63 323 2.0 6.0 0.00 0.01 0.01 4 1009.7
20260906102805 63 295 1.0 3.0 0.00 0.01 0.01 4 1009.7
20260906102306 63 315 1.0 3.0 0.00 0.01 0.01 4 1009.8
20260906101307 63 308 1.0 8.0 0.00 0.01 0.01 4 1010.1
20260906095306 63 283 2.0 7.0 0.00 0.01 0.01 4 1010.5
20260906094805 63 289 2.0 5.0 0.00 0.01 0.01 4 1010.5
20260906093805 63 300 2.0 9.0 0.00 0.01 0.01 4 1010.7
20260906093305 63 294 2.0 7.0 0.00 0.01 0.01 4 1010.7
20260906092806 63 302 2.0 6.0 0.00 0.01 0.01 4 1010.7
20260906092306 63 300 3.0 9.0 0.00 0.01 0.01 4 1010.7
20260906090804 63 289 2.0 7.0 0.00 0.01 0.01 4 1010.7
20260906090307 63 295 2.0 8.0 0.00 0.01 0.01 4 1010.8
20260906085805 63 287 3.0 12.0 0.00 0.01 0.01 4 1010.9
20260906085307 64 305 1.0 3.0 0.00 0.01 0.01 4 1011.0
20260906084805 64 311 2.0 8.0 0.00 0.01 0.01 4 1011.0
20260906084304 63 291 2.0 8.0 0.00 0.01 0.01 4 1011.0
20260906083807 63 298 2.0 6.0 0.00 0.01 0.01 4 1011.1
20260906083305 63 285 3.0 8.0 0.00 0.01 0.01 4 1011.2
20260906082805 63 305 1.0 6.0 0.00 0.01 0.01 4 1011.1
20260906080307 63 305 2.0 7.0 0.00 0.01 0.01 4 1011.3
20260906074806 63 295 3.0 7.0 0.00 0.01 0.01 4 1011.5
20260906073805 63 284 2.0 7.0 0.00 0.01 0.01 4 1011.7
20260906070805 63 273 6.0 12.0 0.00 0.01 0.01 4 1012.2
20260906064804 64 278 4.0 8.0 0.00 0.01 0.01 4 1012.3
20260906064305 63 289 5.0 9.0 0.00 0.01 0.01 4 1012.4
20260906063804 63 281 3.0 7.0 0.00 0.01 0.01 4 1012.4
20260906063304 63 286 2.0 3.0 0.00 0.01 0.01 4 1012.4
20260906062306 63 286 2.0 6.0 0.00 0.01 0.01 4 1012.5
20260906061805 63 305 2.0 3.0 0.00 0.01 0.01 4 1012.5
20260906061304 63 292 3.0 12.0 0.00 0.01 0.01 4 1012.6
20260906055306 62 277 1.0 5.0 0.00 0.01 0.01 25 1012.5
20260906053804 62 287 1.0 2.0 0.00 0.01 0.01 38 1012.6
20260906050805 62 275 2.0 9.0 0.00 0.01 0.01 50 1012.8
20260906045306 62 285 4.0 13.0 0.00 0.01 0.01 58 1012.8
20260906044804 63 275 6.0 12.0 0.00 0.01 0.01 60 1012.8
20260906043805 63 284 5.0 10.0 0.00 0.01 0.01 61 1012.9
20260906041304 63 274 4.0 13.0 0.00 0.01 0.01 59 1013.4
20260906040804 63 276 5.0 12.0 0.00 0.01 0.01 60 1013.4
20260906035306 62 261 9.0 14.0 0.00 0.01 0.01 62 1013.9
20260906034804 62 261 9.0 18.0 0.00 0.01 0.01 62 1013.9
20260906034305 63 271 10.0 16.0 0.00 0.01 0.01 63 1014.0
20260906033305 63 264 9.0 20.0 0.00 0.01 0.01 62 1014.1
20260906030804 62 261 13.0 20.0 0.00 0.01 0.01 59 1014.5
20260906025805 62 275 7.0 14.0 0.00 0.01 0.01 56 1014.6
20260906025306 62 258 11.0 20.0 0.00 0.01 0.01 56 1014.8
20260906024305 62 257 11.0 18.0 0.00 0.01 0.01 52 1014.9
20260906023805 63 263 10.0 17.0 0.00 0.01 0.01 51 1014.9
20260906022805 63 249 10.0 17.0 0.00 0.01 0.01 44 1014.8
20260906020305 62 249 10.0 20.0 0.00 0.01 0.01 47 1015.1
20260906015805 62 245 7.0 14.0 0.00 0.01 0.01 52 1015.1
20260906015306 62 279 7.0 17.0 0.00 0.01 0.01 54 1015.1
20260906014804 62 243 10.0 16.0 0.00 0.01 0.01 55 1015.2
20260906014305 62 280 8.0 16.0 0.00 0.01 0.01 57 1015.2
20260906013306 62 288 2.0 7.0 0.00 0.01 0.01 40 1015.2
20260906011805 61 278 6.0 12.0 0.00 0.01 0.01 52 1015.6
20260906011306 61 258 6.0 12.0 0.00 0.01 0.01 53 1015.7
20260906010304 61 285 5.0 12.0 0.00 0.01 0.01 58 1015.9
20260906004804 61 259 5.0 10.0 0.00 0.01 0.01 55 1016.3
20260906003804 61 282 3.0 12.0 0.00 0.01 0.01 51 1016.5
20260906002805 61 304 2.0 9.0 0.00 0.01 0.01 47 1016.7
20260906001804 61 277 4.0 12.0 0.00 0.01 0.01 36 1016.8
20260906001304 61 273 3.0 8.0 0.00 0.01 0.01 40 1017.0
20260906000805 61 280 4.0 12.0 0.00 0.01 0.01 33 1017.0
20260905235805 61 307 2.0 7.0 0.01 0.01 0.01 17 1017.2
20260905234304 61 281 3.0 7.0 0.01 0.01 0.01 8 1017.6
20260905233805 62 290 2.0 3.0 0.01 0.01 0.01 4 1017.6
20260905232306 61 283 0.0 3.0 0.01 0.01 0.01 4 1017.9
20260905231804 61 290 3.0 6.0 0.01 0.01 0.01 4 1018.0
20260905231305 61 288 1.0 5.0 0.01 0.01 0.01 4 1018.0
20260905230307 61 277 2.0 7.0 0.00 0.00 0.00 5 1018.3
20260905223804 61 278 3.0 12.0 0.00 0.00 0.00 4 1018.7
20260905222805 60 281 4.0 10.0 0.00 0.00 0.00 4 1018.7
20260905222306 59 281 3.0 7.0 0.00 0.00 0.00 4 1018.7
20260905221804 58 288 2.0 5.0 0.00 0.00 0.00 4 1018.8